| time (UTC) | temp C | wind direction | speed KPH | gust KPH | rain 1hr cm | rain 24hr cm | rain mn cm | humidity % | barometer mb |
| 20260507030016 | -17 | 177 | 0.0 | 0.0 | 0.00 | 0.00 | 0.00 | 2 | 1018.5 |
| 20260507025503 | -17 | 177 | 0.0 | 0.0 | 0.00 | 0.00 | 0.00 | 2 | 1018.4 |
| 20260507025002 | -17 | 177 | 0.0 | 0.0 | 0.00 | 0.00 | 0.00 | 2 | 1018.3 |
| 20260507024601 | -17 | 177 | 0.0 | 0.0 | 0.00 | 0.00 | 0.00 | 2 | 1018.2 |
| 20260507024100 | -17 | 176 | 0.0 | 0.0 | 0.00 | 0.00 | 0.00 | 2 | 1018.1 |
| 20260507023557 | -17 | 177 | 0.0 | 0.0 | 0.00 | 0.00 | 0.00 | 2 | 1018.1 |
| 20260507023056 | -17 | 176 | 0.0 | 0.0 | 0.00 | 0.00 | 0.00 | 2 | 1018.1 |
| 20260507022554 | -17 | 177 | 0.0 | 0.0 | 0.00 | 0.00 | 0.00 | 3 | 1017.9 |
| 20260507022055 | -17 | 177 | 0.0 | 0.0 | 0.00 | 0.00 | 0.00 | 2 | 1017.9 |
| 20260507021552 | -17 | 176 | 0.0 | 0.0 | 0.00 | 0.00 | 0.00 | 2 | 1017.8 |
| 20260507021050 | -17 | 176 | 0.0 | 0.0 | 0.00 | 0.00 | 0.00 | 2 | 1017.9 |
| 20260507020549 | -17 | 177 | 0.0 | 0.0 | 0.00 | 0.00 | 0.00 | 2 | 1018.0 |
| 20260507015548 | -17 | 177 | 0.0 | 0.0 | 0.00 | 0.00 | 0.00 | 2 | 1018.0 |
| 20260507015045 | -17 | 177 | 0.0 | 0.0 | 0.00 | 0.00 | 0.00 | 3 | 1018.0 |
| 20260507014547 | -17 | 177 | 0.0 | 0.0 | 0.00 | 0.00 | 0.00 | 3 | 1018.1 |
| 20260507014041 | -17 | 177 | 0.0 | 0.0 | 0.00 | 0.00 | 0.00 | 4 | 1018.1 |
| 20260507013541 | -17 | 177 | 0.0 | 0.0 | 0.00 | 0.00 | 0.00 | 4 | 1018.0 |
| 20260507013040 | -17 | 177 | 0.0 | 0.0 | 0.00 | 0.00 | 0.00 | 5 | 1017.9 |
| 20260507012537 | -17 | 298 | 0.0 | 0.0 | 0.00 | 0.00 | 0.00 | 5 | 1017.9 |
| 20260507012035 | -17 | 299 | 0.0 | 0.0 | 0.00 | 0.00 | 0.00 | 6 | 1017.8 |
| 20260507011539 | -17 | 298 | 0.0 | 0.0 | 0.00 | 0.00 | 0.00 | 7 | 1017.7 |
| 20260507011032 | -17 | 299 | 0.0 | 0.0 | 0.00 | 0.00 | 0.00 | 8 | 1017.7 |
| 20260507010532 | -17 | 299 | 0.0 | 0.0 | 0.00 | 0.00 | 0.00 | 8 | 1017.6 |
| 20260507010047 | -17 | 299 | 0.0 | 0.0 | 0.00 | 0.00 | 0.00 | 10 | 1017.6 |
| 20260507005529 | -17 | 299 | 0.0 | 0.0 | 0.00 | 0.00 | 0.00 | 9 | 1017.4 |
| 20260507005026 | -17 | 299 | 0.0 | 0.0 | 0.00 | 0.00 | 0.00 | 8 | 1017.4 |
| 20260507004528 | -17 | 299 | 0.0 | 0.0 | 0.00 | 0.00 | 0.00 | 9 | 1017.4 |
| 20260507004024 | -17 | 299 | 0.0 | 0.0 | 0.00 | 0.00 | 0.00 | 12 | 1017.4 |
| 20260507003523 | -17 | 299 | 0.0 | 0.0 | 0.00 | 0.00 | 0.00 | 16 | 1017.1 |
| 20260507003022 | -17 | 299 | 0.0 | 0.0 | 0.00 | 0.00 | 0.00 | 22 | 1017.2 |
| 20260507002520 | -17 | 299 | 0.0 | 0.0 | 0.00 | 0.00 | 0.00 | 25 | 1017.3 |
| 20260507002023 | -17 | 300 | 0.0 | 0.0 | 0.00 | 0.00 | 0.00 | 26 | 1017.2 |
| 20260507001518 | -17 | 295 | 0.0 | 0.0 | 0.00 | 0.00 | 0.00 | 26 | 1017.0 |
| 20260507001017 | -17 | 302 | 0.0 | 0.0 | 0.00 | 0.00 | 0.00 | 25 | 1016.8 |
| 20260507000518 | -17 | 303 | 0.0 | 0.0 | 0.00 | 0.00 | 0.00 | 24 | 1016.9 |
| 20260507000015 | -17 | 303 | 0.0 | 0.0 | 0.00 | 0.00 | 0.00 | 25 | 1017.3 |
| 20260506235513 | -17 | 303 | 0.0 | 0.0 | 0.00 | 0.00 | 0.00 | 25 | 1017.4 |
| 20260506235011 | -17 | 303 | 0.0 | 0.0 | 0.00 | 0.00 | 0.00 | 26 | 1017.2 |
| 20260506234511 | -17 | 103 | 0.0 | 0.0 | 0.00 | 0.00 | 0.00 | 25 | 1017.0 |
| 20260506234008 | -17 | 103 | 0.0 | 0.0 | 0.00 | 0.00 | 0.00 | 27 | 1016.8 |
| 20260506233510 | -17 | 103 | 0.0 | 0.0 | 0.00 | 0.00 | 0.00 | 30 | 1016.6 |
| 20260506233011 | -17 | 104 | 0.0 | 0.0 | 0.00 | 0.00 | 0.00 | 35 | 1016.5 |
| 20260506232504 | -17 | 104 | 0.0 | 0.0 | 0.00 | 0.00 | 0.00 | 38 | 1016.4 |
| 20260506232002 | -17 | 103 | 0.0 | 8.0 | 0.00 | 0.00 | 0.00 | 42 | 1016.3 |
| 20260506231501 | -17 | 103 | 0.0 | 9.7 | 0.00 | 0.00 | 0.00 | 48 | 1016.6 |
| 20260506231059 | -17 | 297 | 1.6 | 9.7 | 0.00 | 0.00 | 0.00 | 60 | 1016.5 |
| 20260506230600 | -17 | 283 | 0.0 | 6.4 | 0.00 | 0.00 | 0.00 | 100 | 1016.4 |
| 20260506230121 | -17 | 265 | 0.0 | 22.5 | 0.00 | 0.00 | 0.00 | 100 | 1016.4 |
| 20260506225559 | -17 | 89 | 6.4 | 22.5 | 0.00 | 0.00 | 0.00 | 100 | 1016.5 |
| 20260506225059 | -17 | 251 | 0.0 | 6.4 | 0.00 | 0.00 | 0.00 | 100 | 1015.7 |
| 20260506224605 | -17 | 299 | 1.6 | 14.5 | 0.00 | 0.00 | 0.00 | 100 | 1014.8 |
| 20260506224101 | -17 | 335 | 4.8 | 14.5 | 0.00 | 0.00 | 0.00 | 100 | 1015.0 |
| 20260506224004 | -17 | 5 | 6.4 | 14.5 | 0.00 | 0.00 | 0.00 | 100 | 1015.0 |
| 20260506223557 | -17 | 271 | 0.0 | 4.8 | 0.00 | 0.00 | 0.00 | 100 | 1015.2 |
| 20260506223056 | -17 | 259 | 0.0 | 9.7 | 0.00 | 0.00 | 0.00 | 100 | 1015.2 |
| 20260506222556 | -17 | 120 | 1.6 | 9.7 | 0.00 | 0.00 | 0.00 | 100 | 1014.7 |
| 20260506222055 | -17 | 44 | 0.0 | 11.3 | 0.00 | 0.00 | 0.00 | 100 | 1014.9 |
| 20260506221609 | -17 | 78 | 1.6 | 11.3 | 0.00 | 0.00 | 0.00 | 100 | 1015.1 |
| 20260506221051 | -17 | 65 | 1.6 | 9.7 | 0.00 | 0.00 | 0.00 | 100 | 1014.5 |
| 20260506220551 | -17 | 25 | 0.0 | 8.0 | 0.00 | 0.00 | 0.00 | 100 | 1014.8 |
| 20260506220104 | -17 | 126 | 0.0 | 6.4 | 0.00 | 0.00 | 0.00 | 100 | 1014.8 |
| 20260506215545 | -17 | 34 | 0.0 | 6.4 | 0.00 | 0.00 | 0.00 | 100 | 1014.6 |
| 20260506215044 | -17 | 117 | 0.0 | 4.8 | 0.00 | 0.00 | 0.00 | 100 | 1014.5 |
| 20260506214548 | -17 | 108 | 0.0 | 1.6 | 0.00 | 0.00 | 0.00 | 100 | 1014.6 |
| 20260506214041 | -17 | 108 | 0.0 | 1.6 | 0.00 | 0.00 | 0.00 | 100 | 1014.8 |
| 20260506213540 | -17 | 108 | 0.0 | 3.2 | 0.00 | 0.00 | 0.00 | 100 | 1015.1 |
| 20260506213044 | -17 | 118 | 0.0 | 1.6 | 0.00 | 0.00 | 0.00 | 100 | 1015.5 |
| 20260506212536 | -17 | 119 | 0.0 | 3.2 | 0.00 | 0.00 | 0.00 | 100 | 1015.3 |
| 20260506212035 | -17 | 117 | 0.0 | 6.4 | 0.00 | 0.00 | 0.00 | 98 | 1015.5 |
| 20260506211535 | -17 | 102 | 4.8 | 6.4 | 0.00 | 0.00 | 0.00 | 96 | 1015.7 |
| 20260506211032 | -17 | 117 | 3.2 | 6.4 | 0.00 | 0.00 | 0.00 | 94 | 1015.7 |
| 20260506210531 | -17 | 115 | 0.0 | 3.2 | 0.00 | 0.00 | 0.00 | 95 | 1016.0 |
| 20260506210032 | -17 | 140 | 0.0 | 3.2 | 0.00 | 0.00 | 0.00 | 97 | 1016.0 |
| 20260506205529 | -17 | 137 | 0.0 | 3.2 | 0.00 | 0.00 | 0.00 | 99 | 1016.0 |
| 20260506205026 | -17 | 208 | 0.0 | 1.6 | 0.00 | 0.00 | 0.00 | 100 | 1015.9 |
| 20260506204527 | -17 | 165 | 0.0 | 1.6 | 0.00 | 0.00 | 0.00 | 100 | 1016.0 |
| 20260506204023 | -17 | 278 | 0.0 | 1.6 | 0.00 | 0.00 | 0.00 | 100 | 1016.0 |
| 20260506203524 | -17 | 278 | 0.0 | 1.6 | 0.00 | 0.00 | 0.00 | 100 | 1016.1 |
| 20260506203020 | -17 | 286 | 0.0 | 1.6 | 0.00 | 0.00 | 0.00 | 100 | 1016.2 |
| 20260506202519 | -17 | 284 | 0.0 | 1.6 | 0.00 | 0.00 | 0.00 | 100 | 1016.2 |
| 20260506202018 | -17 | 287 | 0.0 | 1.6 | 0.00 | 0.00 | 0.00 | 100 | 1016.3 |
| 20260506201526 | -17 | 288 | 0.0 | 1.6 | 0.00 | 0.00 | 0.00 | 100 | 1016.4 |
| 20260506201014 | -17 | 291 | 0.0 | 0.0 | 0.00 | 0.00 | 0.00 | 100 | 1016.4 |
| 20260506200512 | -17 | 291 | 0.0 | 0.0 | 0.00 | 0.00 | 0.00 | 100 | 1016.4 |
| 20260506200011 | -17 | 291 | 0.0 | 3.2 | 0.00 | 0.00 | 0.00 | 100 | 1016.5 |
| 20260506195510 | -17 | 291 | 0.0 | 4.8 | 0.00 | 0.00 | 0.00 | 99 | 1016.5 |
| 20260506195008 | -17 | 295 | 0.0 | 8.0 | 0.00 | 0.00 | 0.00 | 98 | 1016.6 |
| 20260506194508 | -17 | 295 | 0.0 | 8.0 | 0.00 | 0.00 | 0.00 | 97 | 1016.7 |
| 20260506194004 | -17 | 89 | 0.0 | 4.8 | 0.00 | 0.00 | 0.00 | 97 | 1016.7 |
| 20260506193504 | -17 | 90 | 0.0 | 4.8 | 0.00 | 0.00 | 0.00 | 98 | 1016.7 |
| 20260506193002 | -17 | 264 | 0.0 | 1.6 | 0.00 | 0.00 | 0.00 | 98 | 1017.0 |
| 20260506192601 | -17 | 269 | 0.0 | 1.6 | 0.00 | 0.00 | 0.00 | 98 | 1016.9 |
| 20260506192059 | -17 | 271 | 0.0 | 1.6 | 0.00 | 0.00 | 0.00 | 99 | 1017.0 |
| 20260506191617 | -17 | 118 | 0.0 | 3.2 | 0.00 | 0.00 | 0.00 | 98 | 1017.1 |
| 20260506191057 | -17 | 101 | 0.0 | 4.8 | 0.00 | 0.00 | 0.00 | 98 | 1017.2 |
| 20260506190556 | -17 | 102 | 0.0 | 4.8 | 0.00 | 0.00 | 0.00 | 99 | 1017.2 |
| 20260506190055 | -17 | 141 | 0.0 | 0.0 | 0.00 | 0.00 | 0.00 | 99 | 1017.4 |
| 20260506185552 | -17 | 141 | 0.0 | 0.0 | 0.00 | 0.00 | 0.00 | 99 | 1017.4 |
| 20260506185051 | -17 | 150 | 0.0 | 3.2 | 0.00 | 0.00 | 0.00 | 99 | 1017.5 |
| 20260506184559 | -17 | 136 | 0.0 | 4.8 | 0.00 | 0.00 | 0.00 | 98 | 1017.5 |
| 20260506184048 | -17 | 108 | 0.0 | 4.8 | 0.00 | 0.00 | 0.00 | 98 | 1017.4 |
| 20260506183551 | -17 | 218 | 0.0 | 4.8 | 0.00 | 0.00 | 0.00 | 97 | 1017.5 |
| 20260506183045 | -17 | 69 | 0.0 | 4.8 | 0.00 | 0.00 | 0.00 | 97 | 1017.5 |
| 20260506182543 | -17 | 94 | 0.0 | 4.8 | 0.00 | 0.00 | 0.00 | 96 | 1017.6 |
| 20260506182042 | -17 | 103 | 0.0 | 4.8 | 0.00 | 0.00 | 0.00 | 95 | 1017.6 |
| 20260506181542 | -17 | 97 | 0.0 | 9.7 | 0.00 | 0.00 | 0.00 | 94 | 1017.6 |
| 20260506181039 | -17 | 94 | 1.6 | 9.7 | 0.00 | 0.00 | 0.00 | 93 | 1017.6 |
| 20260506180538 | -17 | 289 | 0.0 | 4.8 | 0.00 | 0.00 | 0.00 | 93 | 1017.6 |
| 20260506180040 | -17 | 82 | 0.0 | 9.7 | 0.00 | 0.00 | 0.00 | 92 | 1017.6 |
| 20260506175535 | -17 | 91 | 1.6 | 12.9 | 0.00 | 0.00 | 0.00 | 90 | 1017.7 |
| 20260506175035 | -17 | 91 | 1.6 | 12.9 | 0.00 | 0.00 | 0.00 | 87 | 1017.7 |
| 20260506174536 | -17 | 119 | 3.2 | 12.9 | 0.00 | 0.00 | 0.00 | 86 | 1017.7 |
| 20260506174030 | -17 | 118 | 1.6 | 12.9 | 0.00 | 0.00 | 0.00 | 84 | 1017.8 |
| 20260506173530 | -17 | 175 | 1.6 | 9.7 | 0.00 | 0.00 | 0.00 | 83 | 1017.9 |
| 20260506173028 | -17 | 34 | 1.6 | 9.7 | 0.00 | 0.00 | 0.00 | 81 | 1017.9 |
| 20260506172525 | -17 | 79 | 3.2 | 9.7 | 0.00 | 0.00 | 0.00 | 80 | 1017.9 |
| 20260506172028 | -17 | 106 | 0.0 | 9.7 | 0.00 | 0.00 | 0.00 | 79 | 1017.8 |
| 20260506171537 | -17 | 56 | 0.0 | 8.0 | 0.00 | 0.00 | 0.00 | 79 | 1017.9 |
| 20260506171022 | -17 | 103 | 3.2 | 8.0 | 0.00 | 0.00 | 0.00 | 78 | 1017.8 |
| 20260506170524 | -17 | 108 | 0.0 | 9.7 | 0.00 | 0.00 | 0.00 | 79 | 1017.8 |
| 20260506170019 | -17 | 97 | 3.2 | 9.7 | 0.00 | 0.00 | 0.00 | 81 | 1017.8 |
| 20260506165517 | -17 | 91 | 0.0 | 9.7 | 0.00 | 0.00 | 0.00 | 80 | 1017.8 |
| 20260506165016 | -17 | 84 | 3.2 | 11.3 | 0.00 | 0.00 | 0.00 | 80 | 1017.7 |
| 20260506164514 | -17 | 85 | 1.6 | 11.3 | 0.00 | 0.00 | 0.00 | 80 | 1017.8 |
| 20260506164012 | -17 | 89 | 0.0 | 9.7 | 0.00 | 0.00 | 0.00 | 79 | 1017.8 |
| 20260506163511 | -17 | 78 | 3.2 | 9.7 | 0.00 | 0.00 | 0.00 | 78 | 1017.8 |
| 20260506163009 | -17 | 130 | 3.2 | 9.7 | 0.00 | 0.00 | 0.00 | 79 | 1017.9 |
| 20260506162508 | -17 | 103 | 0.0 | 6.4 | 0.00 | 0.00 | 0.00 | 80 | 1017.9 |
| 20260506162007 | -17 | 81 | 0.0 | 6.4 | 0.00 | 0.00 | 0.00 | 81 | 1017.8 |
| 20260506161507 | -17 | 95 | 0.0 | 6.4 | 0.00 | 0.00 | 0.00 | 82 | 1017.9 |
| 20260506161005 | -17 | 77 | 3.2 | 6.4 | 0.00 | 0.00 | 0.00 | 81 | 1017.8 |
| 20260506160505 | -17 | 71 | 3.2 | 6.4 | 0.00 | 0.00 | 0.00 | 82 | 1017.8 |
| 20260506160001 | -17 | 81 | 0.0 | 6.4 | 0.00 | 0.00 | 0.00 | 83 | 1017.9 |
| 20260506155605 | -17 | 92 | 0.0 | 4.8 | 0.00 | 0.00 | 0.00 | 84 | 1017.8 |
| 20260506155058 | -17 | 88 | 0.0 | 4.8 | 0.00 | 0.00 | 0.00 | 86 | 1017.9 |
| 20260506154557 | -17 | 84 | 0.0 | 8.0 | 0.00 | 0.00 | 0.00 | 85 | 1017.9 |
| 20260506154058 | -17 | 77 | 1.6 | 8.0 | 0.00 | 0.00 | 0.00 | 86 | 1018.0 |
| 20260506153556 | -17 | 83 | 1.6 | 6.4 | 0.00 | 0.00 | 0.00 | 85 | 1018.0 |
| 20260506153052 | -17 | 72 | 0.0 | 6.4 | 0.00 | 0.00 | 0.00 | 85 | 1018.0 |
| 20260506152551 | -17 | 77 | 3.2 | 6.4 | 0.00 | 0.00 | 0.00 | 85 | 1018.1 |
| 20260506152049 | -17 | 97 | 0.0 | 4.8 | 0.00 | 0.00 | 0.00 | 85 | 1018.1 |
| 20260506151548 | -17 | 85 | 0.0 | 6.4 | 0.00 | 0.00 | 0.00 | 86 | 1018.2 |
| 20260506151046 | -17 | 75 | 1.6 | 6.4 | 0.00 | 0.00 | 0.00 | 87 | 1018.0 |
| 20260506150545 | -17 | 86 | 0.0 | 4.8 | 0.00 | 0.00 | 0.00 | 88 | 1017.9 |
| 20260506150049 | -17 | 82 | 1.6 | 4.8 | 0.00 | 0.00 | 0.00 | 90 | 1017.9 |
| 20260506145542 | -17 | 90 | 0.0 | 4.8 | 0.00 | 0.00 | 0.00 | 91 | 1017.9 |
| 20260506145043 | -17 | 84 | 0.0 | 1.6 | 0.00 | 0.00 | 0.00 | 92 | 1017.9 |
| 20260506144553 | -17 | 91 | 0.0 | 4.8 | 0.00 | 0.00 | 0.00 | 93 | 1017.9 |
| 20260506144037 | -17 | 87 | 0.0 | 3.2 | 0.00 | 0.00 | 0.00 | 93 | 1017.9 |
| 20260506143537 | -17 | 85 | 0.0 | 3.2 | 0.00 | 0.00 | 0.00 | 95 | 1017.8 |
| 20260506143036 | -17 | 82 | 0.0 | 3.2 | 0.00 | 0.00 | 0.00 | 96 | 1017.8 |
| 20260506142534 | -17 | 76 | 0.0 | 1.6 | 0.00 | 0.00 | 0.00 | 98 | 1017.7 |
| 20260506142031 | -17 | 83 | 0.0 | 6.4 | 0.00 | 0.00 | 0.00 | 100 | 1017.8 |
| 20260506141530 | -17 | 83 | 0.0 | 6.4 | 0.00 | 0.00 | 0.00 | 100 | 1017.7 |
| 20260506141029 | -17 | 22 | 0.0 | 0.0 | 0.00 | 0.00 | 0.00 | 100 | 1017.6 |
| 20260506140527 | -17 | 307 | 0.0 | 0.0 | 0.00 | 0.00 | 0.00 | 100 | 1017.5 |
| 20260506140032 | -17 | 307 | 0.0 | 0.0 | 0.00 | 0.00 | 0.00 | 100 | 1017.5 |
| 20260506135528 | -17 | 308 | 0.0 | 0.0 | 0.00 | 0.00 | 0.00 | 100 | 1017.4 |
| 20260506135023 | -17 | 308 | 0.0 | 0.0 | 0.00 | 0.00 | 0.00 | 100 | 1017.4 |
| 20260506134521 | -17 | 308 | 0.0 | 0.0 | 0.00 | 0.00 | 0.00 | 100 | 1017.4 |
| 20260506134023 | -17 | 307 | 0.0 | 0.0 | 0.00 | 0.00 | 0.00 | 100 | 1017.3 |
| 20260506133520 | -17 | 307 | 0.0 | 0.0 | 0.00 | 0.00 | 0.00 | 100 | 1017.2 |
| 20260506133025 | -17 | 308 | 0.0 | 0.0 | 0.00 | 0.00 | 0.00 | 100 | 1017.3 |
| 20260506132516 | -17 | 0.0 | 0.0 | 0.00 | 0.00 | 0.00 | 1017.2 | ||
| 20260506132014 | -17 | 0.0 | 0.0 | 0.00 | 0.00 | 0.00 | 1017.2 | ||
| 20260506131516 | -17 | 0.0 | 0.0 | 0.00 | 0.00 | 0.00 | 1017.3 | ||
| 20260506131014 | -17 | 0.0 | 0.0 | 0.00 | 0.00 | 0.00 | 1017.3 | ||
| 20260506130512 | -17 | 0.0 | 0.0 | 0.00 | 0.00 | 0.00 | 1017.2 | ||
| 20260506130009 | -17 | 0.0 | 0.0 | 0.00 | 0.00 | 0.00 | 1017.3 | ||
| 20260506125506 | -17 | 0.0 | 0.0 | 0.00 | 0.00 | 0.00 | 1017.3 | ||
| 20260506125009 | -17 | 0.0 | 0.0 | 0.00 | 0.00 | 0.00 | 1017.3 | ||
| 20260506124506 | -17 | 0.0 | 0.0 | 0.00 | 0.00 | 0.00 | 1017.2 | ||
| 20260506124002 | -17 | 0.0 | 0.0 | 0.00 | 0.00 | 0.00 | 1017.2 | ||
| 20260506123601 | -17 | 0.0 | 0.0 | 0.00 | 0.00 | 0.00 | 1017.1 | ||
| 20260506123100 | -17 | 0.0 | 0.0 | 0.00 | 0.00 | 0.00 | 1017.1 | ||
| 20260506122557 | -17 | 0.0 | 0.0 | 0.00 | 0.00 | 0.00 | 1017.1 | ||
| 20260506122058 | -17 | 0.0 | 0.0 | 0.00 | 0.00 | 0.00 | 1017.1 | ||
| 20260506121559 | -17 | 0.0 | 0.0 | 0.00 | 0.00 | 0.00 | 1017.0 | ||
| 20260506121054 | -17 | 0.0 | 0.0 | 0.00 | 0.00 | 0.00 | 1016.9 | ||
| 20260506120552 | -17 | 0.0 | 0.0 | 0.00 | 0.00 | 0.00 | 1016.9 | ||
| 20260506120054 | -17 | 0.0 | 0.0 | 0.00 | 0.00 | 0.00 | 1016.9 | ||
| 20260506115550 | -17 | 0.0 | 0.0 | 0.00 | 0.00 | 0.00 | 1016.8 | ||
| 20260506115048 | -17 | 0.0 | 0.0 | 0.00 | 0.00 | 0.00 | 1016.7 | ||
| 20260506114553 | -17 | 0.0 | 0.0 | 0.00 | 0.00 | 0.00 | 1016.8 | ||
| 20260506114045 | -17 | 0.0 | 0.0 | 0.00 | 0.00 | 0.00 | 1016.7 | ||
| 20260506113543 | -17 | 0.0 | 0.0 | 0.00 | 0.00 | 0.00 | 1016.7 | ||
| 20260506113042 | -17 | 0.0 | 0.0 | 0.00 | 0.00 | 0.00 | 1016.8 | ||
| 20260506112540 | -17 | 0.0 | 0.0 | 0.00 | 0.00 | 0.00 | 1016.8 | ||
| 20260506112039 | -17 | 0.0 | 0.0 | 0.00 | 0.00 | 0.00 | 1016.8 | ||
| 20260506111539 | -17 | 0.0 | 0.0 | 0.00 | 0.00 | 0.00 | 1016.7 | ||
| 20260506111036 | -17 | 0.0 | 0.0 | 0.00 | 0.00 | 0.00 | 1016.6 | ||
| 20260506110535 | -17 | 0.0 | 0.0 | 0.00 | 0.00 | 0.00 | 1016.5 | ||
| 20260506110036 | -17 | 0.0 | 0.0 | 0.00 | 0.00 | 0.00 | 1016.5 | ||
| 20260506105535 | -17 | 0.0 | 0.0 | 0.00 | 0.00 | 0.00 | 1016.5 | ||
| 20260506105037 | -17 | 0.0 | 0.0 | 0.00 | 0.00 | 0.00 | 1016.5 | ||
| 20260506104537 | -17 | 0.0 | 0.0 | 0.00 | 0.00 | 0.00 | 1016.4 | ||
| 20260506104033 | -17 | 0.0 | 0.0 | 0.00 | 0.00 | 0.00 | 1016.4 | ||
| 20260506103533 | -17 | 0.0 | 0.0 | 0.00 | 0.00 | 0.00 | 1016.4 | ||
| 20260506103034 | -17 | 0.0 | 0.0 | 0.00 | 0.00 | 0.00 | 1016.3 | ||
| 20260506102536 | -17 | 0.0 | 0.0 | 0.00 | 0.00 | 0.00 | 1016.4 | ||
| 20260506102034 | -17 | 0.0 | 0.0 | 0.00 | 0.00 | 0.00 | 1016.3 | ||
| 20260506101534 | -17 | 0.0 | 0.0 | 0.00 | 0.00 | 0.00 | 1016.3 | ||
| 20260506101034 | -17 | 0.0 | 0.0 | 0.00 | 0.00 | 0.00 | 1016.1 | ||
| 20260506100533 | -17 | 0.0 | 0.0 | 0.00 | 0.00 | 0.00 | 1016.1 | ||
| 20260506100031 | -17 | 0.0 | 0.0 | 0.00 | 0.00 | 0.00 | 1016.1 | ||
| 20260506095529 | -17 | 0.0 | 0.0 | 0.00 | 0.00 | 0.00 | 1016.1 | ||
| 20260506095028 | -17 | 0.0 | 0.0 | 0.00 | 0.00 | 0.00 | 1016.1 | ||
| 20260506094527 | -17 | 0.0 | 0.0 | 0.00 | 0.00 | 0.00 | 1016.1 | ||
| 20260506094024 | -17 | 0.0 | 0.0 | 0.00 | 0.00 | 0.00 | 1016.1 | ||
| 20260506093525 | -17 | 0.0 | 0.0 | 0.00 | 0.00 | 0.00 | 1016.1 | ||
| 20260506093022 | -17 | 0.0 | 0.0 | 0.00 | 0.00 | 0.00 | 1016.1 | ||
| 20260506092524 | -17 | 0.0 | 0.0 | 0.00 | 0.00 | 0.00 | 1016.1 | ||
| 20260506092019 | -17 | 0.0 | 0.0 | 0.00 | 0.00 | 0.00 | 1016.0 | ||
| 20260506091521 | -17 | 0.0 | 0.0 | 0.00 | 0.00 | 0.00 | 1016.1 | ||
| 20260506091016 | -17 | 0.0 | 0.0 | 0.00 | 0.00 | 0.00 | 1016.1 | ||
| 20260506090514 | -17 | 0.0 | 0.0 | 0.00 | 0.00 | 0.00 | 1016.2 | ||
| 20260506090013 | -17 | 0.0 | 0.0 | 0.00 | 0.00 | 0.00 | 1016.3 | ||
| 20260506085512 | -17 | 0.0 | 0.0 | 0.00 | 0.00 | 0.00 | 1016.4 | ||
| 20260506085010 | -17 | 0.0 | 0.0 | 0.00 | 0.00 | 0.00 | 1016.5 | ||
| 20260506084509 | -17 | 0.0 | 0.0 | 0.00 | 0.00 | 0.00 | 1016.5 | ||
| 20260506084007 | -17 | 0.0 | 0.0 | 0.00 | 0.00 | 0.00 | 1016.6 | ||
| 20260506083506 | -17 | 0.0 | 0.0 | 0.00 | 0.00 | 0.00 | 1016.6 | ||
| 20260506083005 | -17 | 0.0 | 0.0 | 0.00 | 0.00 | 0.00 | 1016.8 | ||
| 20260506082502 | -17 | 0.0 | 0.0 | 0.00 | 0.00 | 0.00 | 1016.9 | ||
| 20260506082002 | -17 | 0.0 | 0.0 | 0.00 | 0.00 | 0.00 | 1016.9 | ||
| 20260506081600 | -17 | 0.0 | 0.0 | 0.00 | 0.00 | 0.00 | 1016.8 | ||
| 20260506081058 | -17 | 0.0 | 0.0 | 0.00 | 0.00 | 0.00 | 1016.8 | ||
| 20260506080557 | -17 | 306 | 0.0 | 0.0 | 0.00 | 0.00 | 0.00 | 1016.9 | |
| 20260506073047 | -17 | 305 | 0.0 | 0.0 | 0.00 | 0.00 | 0.00 | 100 | 1017.4 |
| 20260506072545 | -17 | 305 | 0.0 | 0.0 | 0.00 | 0.00 | 0.00 | 100 | 1017.5 |
| 20260506072044 | -17 | 305 | 0.0 | 0.0 | 0.00 | 0.00 | 0.00 | 100 | 1017.5 |
| 20260506071547 | -17 | 305 | 0.0 | 0.0 | 0.00 | 0.00 | 0.00 | 100 | 1017.4 |
| 20260506071041 | -17 | 305 | 0.0 | 0.0 | 0.00 | 0.00 | 0.00 | 100 | 1017.5 |
| 20260506070541 | -17 | 305 | 0.0 | 0.0 | 0.00 | 0.00 | 0.00 | 100 | 1017.6 |
| 20260506062026 | -17 | 305 | 0.0 | 0.0 | 0.00 | 0.00 | 0.00 | 100 | 1017.6 |
| 20260506061525 | -17 | 305 | 0.0 | 0.0 | 0.00 | 0.00 | 0.00 | 100 | 1017.6 |
| 20260506061024 | -17 | 305 | 0.0 | 0.0 | 0.00 | 0.00 | 0.00 | 100 | 1017.7 |
| 20260506060522 | -17 | 305 | 0.0 | 0.0 | 0.00 | 0.00 | 0.00 | 100 | 1017.7 |
| 20260506051008 | -17 | 305 | 0.0 | 0.0 | 0.00 | 0.00 | 0.00 | 100 | 1018.3 |
| 20260506050504 | -17 | 305 | 0.0 | 0.0 | 0.00 | 0.00 | 0.00 | 100 | 1018.3 |
| 20260506045002 | -17 | 305 | 0.0 | 0.0 | 0.00 | 0.00 | 0.00 | 100 | 1018.3 |
| 20260506044500 | -17 | 305 | 0.0 | 0.0 | 0.00 | 0.00 | 0.00 | 100 | 1018.4 |
| 20260506044000 | -17 | 305 | 0.0 | 0.0 | 0.00 | 0.00 | 0.00 | 100 | 1018.4 |
| 20260506043600 | -17 | 305 | 0.0 | 0.0 | 0.00 | 0.00 | 0.00 | 100 | 1018.4 |
| 20260506043100 | -17 | 305 | 0.0 | 0.0 | 0.00 | 0.00 | 0.00 | 100 | 1018.4 |
| 20260506042557 | -17 | 305 | 0.0 | 0.0 | 0.00 | 0.00 | 0.00 | 100 | 1018.3 |
| 20260506042058 | -17 | 305 | 0.0 | 0.0 | 0.00 | 0.00 | 0.00 | 100 | 1018.3 |
| 20260506041559 | -17 | 305 | 0.0 | 0.0 | 0.00 | 0.00 | 0.00 | 100 | 1018.3 |
| 20260506041054 | -17 | 305 | 0.0 | 0.0 | 0.00 | 0.00 | 0.00 | 100 | 1018.2 |
| 20260506040550 | -17 | 305 | 0.0 | 0.0 | 0.00 | 0.00 | 0.00 | 100 | 1018.3 |
| 20260506040055 | -17 | 305 | 0.0 | 0.0 | 0.00 | 0.00 | 0.00 | 100 | 1018.2 |
| 20260506035550 | -17 | 305 | 0.0 | 0.0 | 0.00 | 0.00 | 0.00 | 100 | 1018.1 |
| 20260506035049 | -17 | 305 | 0.0 | 0.0 | 0.00 | 0.00 | 0.00 | 100 | 1018.2 |
| 20260506034545 | -17 | 305 | 0.0 | 0.0 | 0.00 | 0.00 | 0.00 | 100 | 1018.1 |
| 20260506034043 | -17 | 305 | 0.0 | 0.0 | 0.00 | 0.00 | 0.00 | 100 | 1018.1 |
| 20260506033541 | -17 | 305 | 0.0 | 0.0 | 0.00 | 0.00 | 0.00 | 100 | 1018.1 |
| 20260506033040 | -17 | 305 | 0.0 | 0.0 | 0.00 | 0.00 | 0.00 | 100 | 1018.0 |
| 20260506032539 | -17 | 305 | 0.0 | 0.0 | 0.00 | 0.00 | 0.00 | 100 | 1017.9 |
| 20260506032040 | -17 | 305 | 0.0 | 0.0 | 0.00 | 0.00 | 0.00 | 100 | 1017.9 |
| 20260506031538 | -17 | 305 | 0.0 | 0.0 | 0.00 | 0.00 | 0.00 | 100 | 1017.8 |
| 20260506031035 | -17 | 305 | 0.0 | 0.0 | 0.00 | 0.00 | 0.00 | 100 | 1017.7 |
| 20260506030533 | -17 | 305 | 0.0 | 0.0 | 0.00 | 0.00 | 0.00 | 100 | 1017.6 |